Weather History for De Queen, AR

Change the Weather History Date:

Monday, January 21, 2013

  Actual Average Record
Temperature  
Mean Temperature 43 °F 41 °F  
Max Temperature 55 °F 54 °F 76 °F (1986)
Min Temperature 30 °F 29 °F 8 °F (1985)
Degree Days  
Heating Degree Days 22 24  
Month to date heating degree days 478 498  
Since 1 July heating degree days 1608 1707  
Cooling Degree Days 0 0  
Month to date cooling degree days 0 0  
Year to date cooling degree days 0 0  
Moisture  
Dew Point 32 °F    
Average Humidity 68    
Maximum Humidity 100    
Minimum Humidity 35    
Precipitation  
Precipitation 0.00 in 0.10 in 2.18 in (1958)
Month to date precipitation 1.30 2.24  
Year to date precipitation 1.30 2.24  
Snow  
Snow 0.00 in - - ()
Month to date snowfall T  
Since 1 July snowfall 4.5  
Snow Depth 0.00 in    
Sea Level Pressure  
Sea Level Pressure 30.23 in    
Wind  
Wind Speed 4 mph (East)    
Max Wind Speed 15 mph    
Max Gust Speed 19 mph    
Visibility 8 miles    
Events      
T = Trace of Precipitation, MM = Missing Value Source: NWS Daily Summary

Daily Weather History Graph

Daily Weather History Graph

Search for Another Location

Airport:

Trip Planner

Search our weather history database for the weather conditions in past years. The results will help you decide how hot, cold, wet, or windy it might be!

Date:

Astronomy

Jan. 21, 2013 Rise Set
Actual Time 7:20 AM CST 5:37 PM CST
Civil Twilight 6:54 AM CST 6:04 PM CST
Nautical Twilight 6:23 AM CST 6:34 PM CST
Astronomical Twilight 5:53 AM CST 7:04 PM CST
Moon 1:18 PM CST (1/21) 2:49 AM CST (1/21)
Length of Visible Light 11h 10m
Length of Day
10h 16m
Waxing Gibbous, 75% of the Moon is Illuminated
Jan 21
Waxing Gibbous
Jan 26
Full
Feb 3
Last Quarter
Feb 10
New
Feb 17
First Quarter

Hourly Weather History & Observations

Time (CST) Temp. Windchill Dew Point Humidity Pressure Visibility Wind Dir Wind Speed Gust Speed Precip Events Conditions
12:53 AM 37.0 °F - 35.1 °F 93% 30.14 in 5.0 mi Calm Calm - N/A   Scattered Clouds
1:53 AM 37.9 °F - 37.0 °F 97% 30.16 in 5.0 mi Calm Calm - N/A   Scattered Clouds
3:53 AM 39.9 °F 37.8 °F 37.9 °F 93% 30.16 in 6.0 mi East 3.5 mph - N/A   Scattered Clouds
4:53 AM 39.0 °F - 37.0 °F 93% 30.17 in 5.0 mi Calm Calm - N/A   Partly Cloudy
5:10 AM 36.0 °F 31.1 °F 35.1 °F 97% 30.18 in 1.8 mi North 5.8 mph - N/A   Partly Cloudy
5:22 AM 36.0 °F 33.3 °F 35.1 °F 97% 30.18 in 3.0 mi ESE 3.5 mph - N/A   Partly Cloudy
5:53 AM 37.9 °F - 36.0 °F 93% 30.19 in 5.0 mi Calm Calm - N/A   Clear
6:13 AM 36.0 °F - 34.0 °F 93% 30.19 in 2.0 mi Calm Calm - N/A   Clear
6:53 AM 37.0 °F 32.4 °F 36.0 °F 96% 30.20 in 4.0 mi East 5.8 mph - N/A   Clear
7:53 AM 37.9 °F 34.4 °F 35.1 °F 89% 30.23 in 10.0 mi East 4.6 mph - N/A   Clear
8:53 AM 45.0 °F 38.9 °F 36.0 °F 71% 30.27 in 10.0 mi East 12.7 mph - N/A   Clear
9:53 AM 46.9 °F - 34.0 °F 61% 30.30 in 10.0 mi East 9.2 mph - N/A   Clear
10:53 AM 48.9 °F - 32.0 °F 52% 30.31 in 10.0 mi East 12.7 mph - N/A   Mostly Cloudy
11:53 AM 51.1 °F - 30.9 °F 46% 30.30 in 10.0 mi East 11.5 mph - N/A   Mostly Cloudy
12:53 PM 50.0 °F - 30.0 °F 46% 30.27 in 10.0 mi Variable 4.6 mph - N/A   Partly Cloudy
1:53 PM 53.1 °F - 28.0 °F 38% 30.25 in 10.0 mi Calm Calm - N/A   Mostly Cloudy
2:53 PM 54.0 °F - 28.9 °F 38% 30.24 in 10.0 mi East 5.8 mph - N/A   Clear
3:53 PM 55.0 °F - 28.0 °F 35% 30.23 in 10.0 mi ESE 4.6 mph - N/A   Clear
4:53 PM 53.1 °F - 27.0 °F 37% 30.24 in 10.0 mi ESE 3.5 mph - N/A   Scattered Clouds
5:53 PM 50.0 °F - 27.0 °F 41% 30.23 in 10.0 mi SSE 4.6 mph - N/A   Clear
6:53 PM 44.1 °F - 30.0 °F 58% 30.24 in 10.0 mi Calm Calm - N/A   Overcast
7:53 PM 39.9 °F - 32.0 °F 73% 30.25 in 10.0 mi Calm Calm - N/A   Clear
8:53 PM 35.1 °F 32.2 °F 30.9 °F 85% 30.26 in 10.0 mi East 3.5 mph - N/A   Clear
9:53 PM 34.0 °F 31.0 °F 30.0 °F 85% 30.27 in 10.0 mi ENE 3.5 mph - N/A   Clear
10:53 PM 32.0 °F 28.7 °F 28.0 °F 85% 30.28 in 10.0 mi ENE 3.5 mph - N/A   Clear
11:53 PM 35.1 °F 29.3 °F 25.0 °F 67% 30.28 in 10.0 mi ENE 6.9 mph - N/A   Clear